"2016-02-10 00:00:00",1360731,2.816,194.5,1.326,0.049,11.7,104.0934,9.75,10.8,17.22,0,110.4,13.18,10.54,156.5
"2016-02-10 00:00:30",1360732,2.847,192.2,2.038,0.073,12.08,104.0934,9.75,10.79,17.23,0,110.4,13.18,10.54,154.2
"2016-02-10 00:01:00",1360733,3.621,195.6,6.843,1.255,13.66,104.0934,9.75,10.96,17.36,0,110.4,13.14,10.54,157.6
"2016-02-10 00:01:30",1360734,3.704,201.6,5.941,1.336,14.22,104.0934,9.75,10.98,17.31,0,110.4,13.13,10.54,163.6
"2016-02-10 00:02:00",1360735,3.994,202.7,7.311,1.406,14.45,104.0934,9.75,10.95,17.33,0,110.4,13.14,10.54,164.7
"2016-02-10 00:02:30",1360736,4.405,207.7,8.04,1.376,14.87,104.0934,9.75,10.98,17.34,0,110.4,13.14,10.54,169.7
"2016-02-10 00:03:00",1360737,3.344,201.1,5.849,1.276,12.93,104.0934,9.75,10.9,17.25,0,110.4,13.13,10.54,163.1
"2016-02-10 00:03:30",1360738,2.494,196.4,6.721,0.122,11.38,104.0934,9.75,10.78,17.16,0,110.4,13.18,10.54,158.4
"2016-02-10 00:04:00",1360739,2.405,191.3,8.61,0.276,11.57,104.0934,9.75,10.78,17.5,0,110.4,13.18,10.54,153.3
"2016-02-10 00:04:30",1360740,1.847,201.7,3.177,0.168,11.91,104.0934,9.75,10.77,17.79,0,110.4,13.18,10.54,163.7
"2016-02-10 00:05:00",1360741,1.947,195.1,4.851,0.694,12.43,104.0934,9.75,10.77,17.94,0,110.4,13.14,10.54,157.1
"2016-02-10 00:05:30",1360742,2.747,211.9,9.34,1.29,14.16,104.0934,9.75,10.97,18.2,0,110.4,13.14,10.54,173.9
"2016-02-10 00:06:00",1360743,2.472,199.8,15.13,1.102,13.14,104.0934,9.75,10.78,18.08,0,110.4,13.14,10.54,161.8
"2016-02-10 00:06:30",1360744,1.772,184,5.606,0.288,12.11,104.0925,9.75,10.8,18.23,0,110.4,13.19,10.54,146.0
"2016-02-10 00:07:00",1360745,3.545,202.8,8.23,1.258,15.42,104.0908,9.75,10.99,18.46,0,110.4,13.14,10.53,164.8
"2016-02-10 00:07:30",1360746,3.391,202.4,7.947,1.356,15.4,104.0869,9.74,10.94,18.32,0,110.4,13.15,10.52,164.4
"2016-02-10 00:08:00",1360747,1.114,195.5,11.46,0.309,11.86,104.0841,9.73,10.78,18.37,0,110.4,13.19,10.52,157.5
"2016-02-10 00:08:30",1360748,1.497,200.7,5.551,0.146,11.56,104.0779,9.71,10.75,18.42,0,110.4,13.18,10.50,162.7
"2016-02-10 00:09:00",1360749,0.998,191.1,11.12,0.12,11.79,104.0678,9.69,10.75,18.37,0,110.4,13.18,10.47,153.1
"2016-02-10 00:09:30",1360750,1.555,184.2,6.717,0.252,12.04,104.0657,9.68,10.76,18.38,0,110.4,13.19,10.47,146.2
"2016-02-10 00:10:00",1360751,1.28,190.5,8.13,0.135,12.24,104.0686,9.69,10.76,18.19,0,110.4,13.18,10.48,152.5
"2016-02-10 00:10:30",1360752,2.001,187.6,13.11,1.47,15.04,104.0695,9.69,10.94,18.44,0,110.4,13.14,10.48,149.6
"2016-02-10 00:11:00",1360753,0.702,168,13.65,0.72,12.71,104.0704,9.69,10.81,18.53,0,110.4,13.15,10.48,130.0
"2016-02-10 00:11:30",1360754,0.312,147,6.652,0.105,12.08,104.0716,9.7,10.73,18.72,0,110.4,13.18,10.48,109.0
"2016-02-10 00:12:00",1360755,0.93,146.9,11.81,1.305,13.64,104.0728,9.7,10.85,18.9,0,110.4,13.14,10.49,108.9
"2016-02-10 00:12:30",1360756,0.859,147.9,11.92,1.239,13.42,104.0686,9.69,10.85,18.89,0,110.4,13.14,10.48,109.9
"2016-02-10 00:13:00",1360757,0.08,179,18.99,0.098,11.75,104.0668,9.68,10.73,18.75,0,110.4,13.19,10.47,141.0
"2016-02-10 00:13:30",1360758,0.039,142.4,20.93,0.171,11.52,104.0606,9.67,10.71,18.79,0,110.4,13.19,10.45,104.4
"2016-02-10 00:14:00",1360759,0.208,174.2,27.04,0.255,11.54,104.0561,9.66,10.69,18.73,0,110.4,13.19,10.44,136.2
"2016-02-10 00:14:30",1360760,1.487,202.8,7.271,1.123,12.64,104.0498,9.64,10.78,18.7,0,110.4,13.15,10.43,164.8
"2016-02-10 00:15:00",1360761,2.234,195.9,7.19,1.408,14.37,104.0503,9.64,10.81,18.73,0,110.4,13.15,10.43,157.9
"2016-02-10 00:15:30",1360762,1.325,187.7,3.302,0.101,12.55,104.0513,9.65,10.67,18.48,0,110.4,13.2,10.43,149.7
"2016-02-10 00:16:00",1360763,1.193,193.1,3.656,0.108,12.33,104.0491,9.64,10.66,18.46,0,110.4,13.2,10.43,155.1
"2016-02-10 00:16:30",1360764,1.798,199.3,7.638,1.29,13.82,104.0438,9.63,10.75,18.69,0,110.4,13.15,10.41,161.3
"2016-02-10 00:17:00",1360765,2.3,198.5,6.543,1.43,14.07,104.0414,9.62,10.75,18.67,0,110.4,13.16,10.41,160.5
"2016-02-10 00:17:30",1360766,1.222,191.3,5.591,0.094,12.19,104.0395,9.61,10.65,18.49,0,110.4,13.2,10.40,153.3
"2016-02-10 00:18:00",1360767,1.932,195,7.112,1.274,13.53,104.0279,9.59,10.71,18.53,0,110.4,13.15,10.37,157.0
"2016-02-10 00:18:30",1360768,2.179,186.8,7.49,1.28,13.44,104.0268,9.58,10.73,18.52,0,110.4,13.15,10.37,148.8
"2016-02-10 00:19:00",1360769,1.308,187.5,2.788,0.079,11.85,104.0257,9.58,10.6,18.36,0,110.4,13.2,10.37,149.5
"2016-02-10 00:19:30",1360770,1.535,194.3,2.577,0.152,11.83,104.0172,9.56,10.58,18.32,0,110.4,13.2,10.34,156.3
"2016-02-10 00:20:00",1360771,2.565,198.1,7.731,1.346,13.72,104.0082,9.53,10.68,18.3,0,110.4,13.16,10.32,160.1
"2016-02-10 00:20:30",1360772,2.471,201.3,6.274,1.203,13.36,104.0059,9.53,10.67,18.12,0,110.3,13.16,10.31,163.3
"2016-02-10 00:21:00",1360773,2.651,200.1,8.28,1.301,13.92,103.9935,9.5,10.67,18.02,0,110.4,13.16,10.28,162.1
"2016-02-10 00:21:30",1360774,2.676,201.2,6.514,1.213,14.12,103.9918,9.49,10.71,18.07,0,110.4,13.16,10.28,163.2
"2016-02-10 00:22:00",1360775,1.914,200.7,2.963,0.508,12.19,103.9808,9.46,10.53,18,0,110.4,13.2,10.25,162.7
"2016-02-10 00:22:30",1360776,2.554,202.8,6.322,1.239,13.31,103.9639,9.42,10.61,18.01,0,110.3,13.16,10.21,164.8
"2016-02-10 00:23:00",1360777,2.482,206.2,6.768,1.218,13.62,103.9597,9.41,10.65,18.16,0,110.3,13.16,10.20,168.2
"2016-02-10 00:23:30",1360778,2.178,207.2,4.52,1.087,12.84,103.9578,9.41,10.52,17.98,0,110.3,13.16,10.19,169.2
"2016-02-10 00:24:00",1360779,1.604,207.2,1.609,0.095,11.88,103.95,9.39,10.46,17.91,0,110.3,13.21,10.17,169.2
"2016-02-10 00:24:30",1360780,1.705,207.7,5.21,0.688,12.22,103.9351,9.35,10.43,17.95,0,110.3,13.16,10.13,169.7
"2016-02-10 00:25:00",1360781,2.129,208.4,6.303,1.234,13.94,103.9344,9.35,10.58,18.15,0,110.3,13.16,10.13,170.4
"2016-02-10 00:25:30",1360782,2.736,208.6,9.06,1.422,15.29,103.9266,9.33,10.56,18.19,0,110.3,13.16,10.11,170.6
"2016-02-10 00:26:00",1360783,2.756,201.3,8.12,1.419,15.03,103.916,9.3,10.48,18.13,0,110.3,13.16,10.08,163.3
"2016-02-10 00:26:30",1360784,1.259,193.8,1.449,0.055,12.19,103.9105,9.29,10.35,18.03,0,110.3,13.2,10.07,155.8
"2016-02-10 00:27:00",1360785,1.089,199.2,2.005,0.079,11.76,103.9063,9.27,10.33,18.09,0,110.3,13.2,10.06,161.2
"2016-02-10 00:27:30",1360786,1.389,207.8,6.623,1.07,12.91,103.8923,9.24,10.4,18.27,0,110.3,13.16,10.02,169.8
"2016-02-10 00:28:00",1360787,2.395,211.8,7.198,1.402,14.47,103.8869,9.22,10.41,18.34,0,110.3,13.16,10.01,173.8
"2016-02-10 00:28:30",1360788,0.948,203.7,2.643,0.069,11.94,103.8893,9.23,10.26,18.28,0,110.3,13.21,10.02,165.7
"2016-02-10 00:29:00",1360789,0.955,204,3.934,0.073,11.98,103.8758,9.2,10.24,18.39,0,110.3,13.21,9.98,166.0
"2016-02-10 00:29:30",1360790,0.842,204.9,4.658,0.11,12.13,103.8595,9.15,10.22,18.46,0,110.3,13.21,9.94,166.9
"2016-02-10 00:30:00",1360791,1.399,214.7,4.67,0.911,13.12,103.8589,9.15,10.29,18.6,0,110.3,13.17,9.94,176.7
"2016-02-10 00:30:30",1360792,2.73,219.7,6.913,1.433,14.85,103.8465,9.12,10.32,18.68,0,110.3,13.17,9.91,181.7
"2016-02-10 00:31:00",1360793,2.594,217.5,7.326,1.431,15.18,103.8366,9.1,10.35,18.72,0,110.3,13.17,9.88,179.5
"2016-02-10 00:31:30",1360794,1.821,217.8,5.408,1.048,13.44,103.8256,9.07,10.22,18.59,0,110.3,13.17,9.85,179.8
"2016-02-10 00:32:00",1360795,1.41,216.4,1.368,0.035,11.95,103.8186,9.05,10.11,18.53,0,110.3,13.22,9.83,178.4
"2016-02-10 00:32:30",1360796,1.37,218.2,2.901,0.047,11.96,103.8039,9.01,10.1,18.58,0,110.3,13.22,9.80,180.2
"2016-02-10 00:33:00",1360797,2.429,225.3,7.283,1.302,14.23,103.7915,8.98,10.29,18.9,0,110.3,13.18,9.76,187.3
"2016-02-10 00:33:30",1360798,1.837,221.6,5.037,1.117,12.83,103.7799,8.95,10.05,18.75,0,110.3,13.18,9.73,183.6
"2016-02-10 00:34:00",1360799,1.344,221.3,1.478,0.063,12.15,103.772,8.93,10,18.72,0,110.3,13.23,9.71,183.3
"2016-02-10 00:34:30",1360800,1.311,225.2,3.484,0.07,12.3,103.7576,8.89,9.99,18.77,0,110.3,13.23,9.68,187.2
"2016-02-10 00:35:00",1360801,2.194,236.5,6.95,1.293,14.49,103.7585,8.9,10.11,19.09,0,110.3,13.18,9.68,198.5
"2016-02-10 00:35:30",1360802,3.088,246.5,7.236,1.365,15.57,103.7493,8.87,10.15,19.18,0,110.3,13.18,9.66,208.5
"2016-02-10 00:36:00",1360803,2.218,243.4,6.905,1.318,13.7,103.732,8.83,10.01,19.09,0,110.3,13.18,9.61,205.4
"2016-02-10 00:36:30",1360804,1.248,242.6,2.661,0.096,12.11,103.7343,8.83,9.91,19.04,0,110.3,13.23,9.62,204.6
"2016-02-10 00:37:00",1360805,1.348,242.6,2.808,0.08,11.88,103.7387,8.85,9.88,19.08,0,110.3,13.23,9.63,204.6
"2016-02-10 00:37:30",1360806,1.524,245.1,2.498,0.051,11.98,103.7287,8.82,9.86,19.13,0,110.3,13.23,9.60,207.1
"2016-02-10 00:38:00",1360807,1.929,247.3,5.845,0.983,12.71,103.7159,8.79,9.88,19.19,0,110.3,13.19,9.57,209.3
"2016-02-10 00:38:30",1360808,3.028,246.7,8.04,1.424,15.08,103.7162,8.79,9.98,19.33,0,110.3,13.19,9.57,208.7
"2016-02-10 00:39:00",1360809,1.698,241.7,5.316,0.369,12.32,103.717,8.79,9.8,19.09,0,110.3,13.19,9.57,203.7
"2016-02-10 00:39:30",1360810,1.975,238.2,7.904,0.94,12.81,103.7038,8.76,9.83,19.11,0,110.3,13.19,9.54,200.2
"2016-02-10 00:40:00",1360811,3.242,255.4,7.03,1.417,15.77,103.6911,8.72,9.96,19.26,0,110.3,13.19,9.51,217.4
"2016-02-10 00:40:30",1360812,3.418,248.5,9.54,1.448,14.9,103.6912,8.72,9.93,19.31,0,110.2,13.19,9.51,210.5
"2016-02-10 00:41:00",1360813,2.569,240.7,4.851,0.065,12.42,103.6886,8.72,9.8,18.96,0,110.2,13.2,9.50,202.7
"2016-02-10 00:41:30",1360814,2.51,226,4.349,0.191,12.15,103.6683,8.67,9.72,18.77,0,110.2,13.24,9.45,188.0
"2016-02-10 00:42:00",1360815,2.852,235.6,2.83,0.248,12.1,103.6573,8.64,9.72,18.89,0,110.3,13.23,9.42,197.6
"2016-02-10 00:42:30",1360816,3.119,235.8,4.959,0.583,12.79,103.6573,8.64,9.76,18.86,0,110.2,13.23,9.42,197.8
"2016-02-10 00:43:00",1360817,4.374,248.9,8.56,1.47,15.23,103.6573,8.64,9.85,18.92,0,110.2,13.19,9.42,210.9
"2016-02-10 00:43:30",1360818,3.653,241.2,6.676,1.304,13.89,103.6528,8.63,9.8,18.59,0,110.2,13.19,9.41,203.2
"2016-02-10 00:44:00",1360819,4.521,245,7.753,1.426,15.53,103.6421,8.6,9.89,18.6,0,110.2,13.19,9.38,207.0
"2016-02-10 00:44:30",1360820,4.464,245.3,6.535,1.402,14.87,103.6265,8.56,9.83,18.46,0,110.2,13.19,9.34,207.3
"2016-02-10 00:45:00",1360821,3.894,243.9,6.227,1.317,13.5,103.6237,8.55,9.68,18.29,0,110.2,13.19,9.33,205.9
"2016-02-10 00:45:30",1360822,3.326,237,2.034,0.175,11.85,103.6234,8.55,9.63,18.39,0,110.2,13.23,9.33,199.0
"2016-02-10 00:46:00",1360823,3.568,235.8,1.881,0.105,11.8,103.6234,8.55,9.62,18.56,0,110.2,13.23,9.33,197.8
"2016-02-10 00:46:30",1360824,3.416,233.4,2.351,0.12,12.1,103.6243,8.55,9.68,19.02,0,110.2,13.24,9.34,195.4
"2016-02-10 00:47:00",1360825,5.234,240.7,7.189,1.434,15.28,103.6258,8.56,9.81,19,0,110.2,13.19,9.34,202.7
"2016-02-10 00:47:30",1360826,5.194,239.4,6.966,1.359,15.19,103.6281,8.56,9.81,18.76,0,110.2,13.19,9.35,201.4
"2016-02-10 00:48:00",1360827,5.276,243.3,6.767,1.455,15.66,103.6313,8.57,9.82,18.73,0,110.2,13.2,9.35,205.3
"2016-02-10 00:48:30",1360828,4.517,237.1,7.6,1.345,14.34,103.6369,8.59,9.81,18.96,0,110.2,13.2,9.37,199.1
"2016-02-10 00:49:00",1360829,3.373,227.5,0.877,0.028,11.77,103.6373,8.59,9.6,19.3,0,110.2,13.24,9.37,189.5
"2016-02-10 00:49:30",1360830,3.343,230.6,1.042,0.062,11.64,103.6414,8.6,9.6,19.6,0,110.2,13.24,9.38,192.6
"2016-02-10 00:50:00",1360831,3.56,231.5,0.482,0.067,12.01,103.6426,8.6,9.6,19.36,0,110.2,13.25,9.38,193.5
"2016-02-10 00:50:30",1360832,4.672,237.6,7.121,1.414,14.29,103.6473,8.61,9.81,19.21,0,110.2,13.2,9.39,199.6
"2016-02-10 00:51:00",1360833,4.454,234.8,6.718,1.377,14.2,103.6477,8.61,9.72,18.95,0,110.2,13.2,9.40,196.8
"2016-02-10 00:51:30",1360834,4.654,237.5,7.22,1.412,14.53,103.6502,8.62,9.79,19.08,0,110.2,13.2,9.40,199.5
"2016-02-10 00:52:00",1360835,4.594,236,6.823,1.395,14.31,103.6497,8.62,9.77,19.58,0,110.2,13.2,9.40,198.0
"2016-02-10 00:52:30",1360836,4.017,233.9,6.318,1.263,13.5,103.6509,8.62,9.66,19.49,0,110.2,13.2,9.40,195.9
"2016-02-10 00:53:00",1360837,3.25,230.2,0.89,0.041,11.71,103.6515,8.62,9.61,19.45,0,110.2,13.25,9.41,192.2
"2016-02-10 00:53:30",1360838,3.197,229.3,1.36,0.057,11.78,103.6498,8.62,9.61,19.44,0,110.2,13.25,9.40,191.3
"2016-02-10 00:54:00",1360839,3.934,230.6,7.012,1.208,13.42,103.6495,8.62,9.72,19.62,0,110.2,13.2,9.40,192.6
"2016-02-10 00:54:30",1360840,4.526,233,7.228,1.395,14.42,103.6472,8.61,9.79,19.81,0,110.2,13.21,9.39,195.0
"2016-02-10 00:55:00",1360841,4.626,233.5,7.07,1.399,15.03,103.647,8.61,9.79,19.74,0,110.2,13.21,9.39,195.5
"2016-02-10 00:55:30",1360842,4.306,231.9,6.772,1.353,14.58,103.6413,8.6,9.83,19.68,0,110.2,13.21,9.38,193.9
"2016-02-10 00:56:00",1360843,4.67,234.3,7.338,1.425,14.97,103.6402,8.59,9.76,19.62,0,110.2,13.21,9.38,196.3
"2016-02-10 00:56:30",1360844,3.348,230.1,2.096,0.085,11.82,103.6402,8.59,9.61,19.48,0,110.2,13.25,9.38,192.1
"2016-02-10 00:57:00",1360845,3.391,236.4,1.133,0.049,12.11,103.6376,8.59,9.6,19.46,0,110.2,13.26,9.37,198.4
"2016-02-10 00:57:30",1360846,3.71,239.6,3.825,0.751,12.42,103.6362,8.58,9.61,19.35,0,110.2,13.21,9.37,201.6
"2016-02-10 00:58:00",1360847,4.799,247.8,7.142,1.379,14.84,103.6283,8.56,9.81,19.44,0,110.2,13.21,9.35,209.8
"2016-02-10 00:58:30",1360848,4.351,245.2,7.013,1.352,13.82,103.6247,8.55,9.7,19.29,0,110.2,13.21,9.34,207.2
"2016-02-10 00:59:00",1360849,4.439,248.2,7.423,1.357,14.74,103.6247,8.55,9.83,19.2,0,110.2,13.21,9.34,210.2
"2016-02-10 00:59:30",1360850,4.152,247.8,7.384,1.405,14.55,103.6247,8.55,9.81,18.85,0,110.2,13.2,9.34,209.8
"2016-02-10 01:00:00",1360851,3.547,245.6,5.619,1.106,13.2,103.6247,8.55,9.62,18.86,0,110.2,13.21,9.34,207.6
"2016-02-10 01:00:30",1360852,2.93,244.4,0.356,0.051,11.93,103.6247,8.55,9.6,19.07,0,110.2,13.24,9.34,206.4
"2016-02-10 01:01:00",1360853,3.076,244.9,0.552,0.115,11.91,103.6255,8.56,9.59,19.18,0,110.2,13.25,9.34,206.9
"2016-02-10 01:01:30",1360854,3.294,242.9,1.771,0.072,12.02,103.6252,8.56,9.6,19.08,0,110.2,13.25,9.34,204.9
"2016-02-10 01:02:00",1360855,4.557,247.6,6.771,1.372,14.48,103.627,8.56,9.82,18.86,0,110.2,13.2,9.34,209.6
"2016-02-10 01:02:30",1360856,5.204,244.3,7.347,1.382,14.76,103.6288,8.56,9.78,18.63,0,110.1,13.21,9.35,206.3
"2016-02-10 01:03:00",1360857,5.888,247.5,6.338,1.3,15.83,103.6296,8.57,9.81,19.2,0,110.2,13.21,9.35,209.5
"2016-02-10 01:03:30",1360858,4.936,242.7,6.727,1.407,14.06,103.6317,8.57,9.69,19.02,0,110.2,13.2,9.35,204.7
"2016-02-10 01:04:00",1360859,3.734,237.6,0.97,0.052,12.04,103.6331,8.58,9.62,18.9,0,110.2,13.26,9.36,199.6
"2016-02-10 01:04:30",1360860,3.747,236.4,0.719,0.04,11.66,103.6364,8.58,9.59,18.47,0,110.2,13.26,9.37,198.4
"2016-02-10 01:05:00",1360861,3.764,237.4,0.742,0.073,11.89,103.6384,8.59,9.6,18.26,0,110.2,13.26,9.37,199.4
"2016-02-10 01:05:30",1360862,5.302,241.3,6.784,1.418,14.2,103.6425,8.6,9.7,18.49,0,110.2,13.22,9.38,203.3
"2016-02-10 01:06:00",1360863,5.78,241.7,6.87,1.39,15.15,103.6454,8.61,9.79,19.08,0,110.2,13.22,9.39,203.7
"2016-02-10 01:06:30",1360864,5.44,239.7,7.39,1.4,14.7,103.6475,8.61,9.79,19.17,0,110.2,13.21,9.39,201.7
"2016-02-10 01:07:00",1360865,5.702,239.6,7.331,1.398,14.81,103.6501,8.62,9.78,19.09,0,110.2,13.22,9.40,201.6
"2016-02-10 01:07:30",1360866,5.254,236.2,6.542,1.111,13.43,103.6542,8.63,9.71,19.19,0,110.2,13.22,9.41,198.2
"2016-02-10 01:08:00",1360867,4.669,232,1.297,0.107,11.9,103.6536,8.63,9.6,19.32,0,110.2,13.26,9.41,194.0
"2016-02-10 01:08:30",1360868,5.263,236.2,6.652,1.327,13.08,103.6539,8.63,9.65,19.26,0,110.2,13.22,9.41,198.2
"2016-02-10 01:09:00",1360869,6.137,239.4,7.711,1.395,14.4,103.6563,8.64,9.83,19.48,0,110.2,13.22,9.42,201.4
"2016-02-10 01:09:30",1360870,6.636,238.9,7.89,1.429,14.66,103.6568,8.64,9.76,19.56,0,110.2,13.22,9.42,200.9
"2016-02-10 01:10:00",1360871,6.378,243.5,7.385,1.43,15.51,103.6574,8.64,9.91,19.66,0,110.2,13.22,9.42,205.5
"2016-02-10 01:10:30",1360872,5.765,237.9,7.247,1.335,14.28,103.6586,8.64,9.79,19.33,0,110.2,13.22,9.42,199.9
"2016-02-10 01:11:00",1360873,5.479,236.6,5.838,1.01,13.07,103.6595,8.64,9.7,18.95,0,110.2,13.22,9.43,198.6
"2016-02-10 01:11:30",1360874,5.026,233.4,0.614,0.089,11.78,103.6606,8.65,9.64,18.63,0,110.2,13.27,9.43,195.4
"2016-02-10 01:12:00",1360875,6.352,240.1,7.219,1.401,14.19,103.6668,8.66,9.74,18.57,0,110.2,13.22,9.44,202.1
"2016-02-10 01:12:30",1360876,5.689,236.9,6.255,1.216,13.46,103.6733,8.68,9.74,18.51,0,110.2,13.22,9.46,198.9
"2016-02-10 01:13:00",1360877,5.997,238.7,7.464,1.39,14.31,103.6759,8.69,9.87,18.43,0,110.2,13.22,9.47,200.7
"2016-02-10 01:13:30",1360878,6.576,240.5,7.251,1.435,15.15,103.6745,8.68,9.91,18.41,0,110.2,13.22,9.46,202.5
"2016-02-10 01:14:00",1360879,6.358,240.4,6.924,1.311,14.33,103.6725,8.68,9.77,18.34,0,110.2,13.22,9.46,202.4
"2016-02-10 01:14:30",1360880,5.228,233.2,1.017,0.136,11.95,103.6778,8.69,9.67,18.38,0,110.2,13.27,9.47,195.2
"2016-02-10 01:15:00",1360881,5.795,235.6,5.093,0.969,12.89,103.6815,8.7,9.77,18.65,0,110.2,13.22,9.48,197.6
"2016-02-10 01:15:30",1360882,6.574,238.8,7.693,1.417,14.14,103.6869,8.71,9.81,18.77,0,110.2,13.22,9.50,200.8
"2016-02-10 01:16:00",1360883,6.284,235.2,7.038,1.39,13.66,103.6906,8.72,9.88,18.99,0,110.2,13.21,9.51,197.2
"2016-02-10 01:16:30",1360884,6.898,238.5,7.234,1.41,14.73,103.692,8.73,9.92,19.06,0,110.2,13.22,9.51,200.5
"2016-02-10 01:17:00",1360885,6.4,236.9,6.988,1.391,13.85,103.6937,8.73,9.82,18.86,0,110.2,13.22,9.51,198.9
"2016-02-10 01:17:30",1360886,6.387,235.9,6.58,1.262,13.46,103.6937,8.73,9.81,18.84,0,110.2,13.21,9.51,197.9
"2016-02-10 01:18:00",1360887,6.331,232,5.928,0.797,12.65,103.6937,8.73,9.82,19.21,0,110.2,13.21,9.51,194.0
"2016-02-10 01:18:30",1360888,6.759,238.2,6.921,1.322,14.13,103.6937,8.73,9.84,19.13,0,110.2,13.22,9.51,200.2
"2016-02-10 01:19:00",1360889,7.135,238.2,7.115,1.441,14.32,103.6937,8.73,9.89,19.02,0,110.2,13.21,9.51,200.2
"2016-02-10 01:19:30",1360890,7.563,239.4,7.541,1.41,14.54,103.6937,8.73,9.92,19.34,0,110.2,13.22,9.51,201.4
"2016-02-10 01:20:00",1360891,7.989,238.8,7.116,1.428,15.34,103.6937,8.73,9.94,19.54,0,110.2,13.21,9.51,200.8
"2016-02-10 01:20:30",1360892,7.03,235,6.549,1.273,13.88,103.6937,8.73,9.92,19.47,0,110.2,13.21,9.51,197.0
"2016-02-10 01:21:00",1360893,6.777,235.3,6.69,1.325,13.85,103.6937,8.73,9.86,19.37,0,110.2,13.23,9.51,197.3
"2016-02-10 01:21:30",1360894,6.529,231.9,5.984,1.372,13.2,103.6937,8.73,9.86,19.37,0,110.2,13.22,9.51,193.9
"2016-02-10 01:22:00",1360895,6.985,231.8,6.693,1.324,13.76,103.6937,8.73,9.82,19.36,0,110.2,13.22,9.51,193.8
"2016-02-10 01:22:30",1360896,7.226,231.2,7.445,1.298,13.88,103.6937,8.73,9.95,19.64,0,110.2,13.23,9.51,193.2
"2016-02-10 01:23:00",1360897,7.529,234.4,6.91,1.351,14.87,103.6937,8.73,9.88,19.59,0,110.2,13.23,9.51,196.4
"2016-02-10 01:23:30",1360898,7.13,233.1,6.128,1.347,14.11,103.6937,8.73,9.93,19.61,0,110.2,13.23,9.51,195.1
"2016-02-10 01:24:00",1360899,7.836,228.2,7.454,1.411,14.11,103.6937,8.73,9.86,19.92,0,110.2,13.23,9.51,190.2
"2016-02-10 01:24:30",1360900,7.46,229.2,7.309,1.324,13.42,103.6937,8.73,9.86,19.99,0,110.2,13.22,9.51,191.2
"2016-02-10 01:25:00",1360901,7.305,229.1,7.913,1.457,13.47,103.6937,8.73,9.88,20.01,0,110.2,13.22,9.51,191.1
"2016-02-10 01:25:30",1360902,7.888,229,7.9,1.551,14.47,103.6937,8.73,9.88,20.13,0,110.2,13.23,9.51,191.0
"2016-02-10 01:26:00",1360903,7.76,232,8.16,1.332,14.87,103.694,8.73,9.98,20.34,0,110.1,13.23,9.51,194.0
"2016-02-10 01:26:30",1360904,7.272,230.9,7.438,1.426,14.42,103.6948,8.73,9.87,20.25,0,110.1,13.23,9.52,192.9
"2016-02-10 01:27:00",1360905,6.829,228.2,6.836,1.375,14.16,103.6957,8.74,9.97,20.26,0,110.1,13.23,9.52,190.2
"2016-02-10 01:27:30",1360906,7.43,231.7,7.314,1.473,14.04,103.696,8.74,9.86,20.18,0,110.1,13.23,9.52,193.7
"2016-02-10 01:28:00",1360907,6.634,225.5,4.007,0.692,12.4,103.6951,8.73,9.84,20.34,0,110.1,13.23,9.52,187.5
"2016-02-10 01:28:30",1360908,7.657,227.8,6.623,1.352,13.13,103.6989,8.74,9.85,20.88,0,110.1,13.23,9.53,189.8
"2016-02-10 01:29:00",1360909,8.41,235.3,7.188,1.343,15.35,103.6975,8.74,9.96,21.37,0,110.1,13.23,9.52,197.3
"2016-02-10 01:29:30",1360910,7.903,230,7.016,1.399,14.28,103.697,8.74,9.87,21.14,0,110.1,13.23,9.52,192.0
"2016-02-10 01:30:00",1360911,7.419,230,7.773,1.419,14.78,103.6936,8.73,9.87,20.83,0,110.1,13.23,9.51,192.0
"2016-02-10 01:30:30",1360912,7.141,229,7.245,1.351,13.99,103.6917,8.73,9.93,20.52,0,110.1,13.23,9.51,191.0
"2016-02-10 01:31:00",1360913,6.961,225.8,5.987,0.915,12.29,103.6871,8.71,9.72,20.66,0,110.1,13.23,9.50,187.8
"2016-02-10 01:31:30",1360914,7.421,227.8,6.879,1.282,13.25,103.6855,8.71,9.82,20.98,0,110.1,13.23,9.49,189.8
"2016-02-10 01:32:00",1360915,8.34,233.5,7.413,1.441,15.29,103.6844,8.71,9.95,21.38,0,110.1,13.23,9.49,195.5
"2016-02-10 01:32:30",1360916,8.57,233.2,6.731,1.378,15.6,103.685,8.71,9.98,21.71,0,110.1,13.23,9.49,195.2
"2016-02-10 01:33:00",1360917,8.3,230.7,6.187,1.434,14.61,103.6814,8.7,9.96,21.83,0,110.1,13.22,9.48,192.7
"2016-02-10 01:33:30",1360918,8.33,237,7.19,1.404,14.71,103.6787,8.69,9.85,21.76,0,110.1,13.22,9.47,199.0
"2016-02-10 01:34:00",1360919,6.824,229.8,1.466,0.128,11.76,103.6732,8.68,9.71,21.73,0,110.1,13.26,9.46,191.8
"2016-02-10 01:34:30",1360920,7.662,229.8,7.195,1.278,13.17,103.6759,8.69,9.82,22.18,0,110.1,13.22,9.47,191.8
"2016-02-10 01:35:00",1360921,8.65,236.3,7.125,1.383,15.33,103.6794,8.69,9.93,22.49,0,110.1,13.23,9.48,198.3
"2016-02-10 01:35:30",1360922,8.92,240.1,7.036,1.335,15.81,103.6791,8.69,9.92,22.22,0,110.1,13.22,9.48,202.1
"2016-02-10 01:36:00",1360923,8.75,240.2,6.944,1.385,15.49,103.6823,8.7,9.94,22.26,0,110.1,13.23,9.48,202.2
"2016-02-10 01:36:30",1360924,8.32,237,7.032,1.368,14.05,103.6803,8.7,9.78,22.16,0,110.1,13.22,9.48,199.0
"2016-02-10 01:37:00",1360925,7.092,230.2,0.5,0.088,11.79,103.6838,8.71,9.72,22.09,0,110.1,13.26,9.49,192.2
"2016-02-10 01:37:30",1360926,7.731,234.5,6.464,1.184,13.16,103.6847,8.71,9.77,22.21,0,110.2,13.23,9.49,196.5
"2016-02-10 01:38:00",1360927,8.19,236.1,6.841,1.353,14.21,103.6847,8.71,9.88,22.34,0,110.1,13.23,9.49,198.1
"2016-02-10 01:38:30",1360928,8.55,237.4,7.092,1.406,15.06,103.6867,8.71,9.82,22.3,0,110.1,13.23,9.50,199.4
"2016-02-10 01:39:00",1360929,8.83,238.7,6.985,1.368,15.59,103.6867,8.71,9.92,22.45,0,110.2,13.23,9.50,200.7
"2016-02-10 01:39:30",1360930,8.48,235.5,7.261,1.41,14.83,103.6873,8.71,9.89,22.5,0,110.1,13.23,9.50,197.5
"2016-02-10 01:40:00",1360931,7.517,230.5,4.48,1.055,12.19,103.6873,8.71,9.67,22.32,0,110.1,13.23,9.50,192.5
"2016-02-10 01:40:30",1360932,7.723,231.3,6.039,1.196,13.01,103.6882,8.72,9.77,22.37,0,110.1,13.23,9.50,193.3
"2016-02-10 01:41:00",1360933,8.15,233.7,7.475,1.329,14.61,103.6864,8.71,9.88,22.41,0,110.1,13.23,9.49,195.7
"2016-02-10 01:41:30",1360934,8.08,233.8,7.347,1.409,14.73,103.6879,8.72,9.93,22.39,0,110.1,13.24,9.50,195.8
"2016-02-10 01:42:00",1360935,8.3,234.3,7.133,1.405,15.29,103.6888,8.72,9.9,22.28,0,110.1,13.23,9.50,196.3
"2016-02-10 01:42:30",1360936,7.875,230.3,6.797,1.295,14.11,103.6902,8.72,9.82,22.09,0,110.1,13.23,9.50,192.3
"2016-02-10 01:43:00",1360937,7.491,228,5.827,1.049,13.26,103.6905,8.72,9.76,21.88,0,110.1,13.24,9.51,190.0
"2016-02-10 01:43:30",1360938,7.224,227.9,4.244,0.799,12.64,103.6899,8.72,9.77,21.65,0,110.1,13.23,9.50,189.9
"2016-02-10 01:44:00",1360939,8.64,232.7,7.285,1.459,14.77,103.6911,8.72,9.84,21.72,0,110.1,13.24,9.51,194.7
"2016-02-10 01:44:30",1360940,9.15,235,6.429,1.282,16.12,103.692,8.73,9.89,21.88,0,110.1,13.24,9.51,197.0
"2016-02-10 01:45:00",1360941,8.98,233.3,7.085,1.347,15.24,103.6914,8.72,9.91,21.79,0,110.1,13.23,9.51,195.3
"2016-02-10 01:45:30",1360942,8.08,228.4,6.645,1.305,13.91,103.692,8.73,9.83,21.33,0,110.1,13.24,9.51,190.4
"2016-02-10 01:46:00",1360943,7.946,228.4,6.16,1.205,13.23,103.6926,8.73,9.75,21.19,0,110.1,13.24,9.51,190.4
"2016-02-10 01:46:30",1360944,7.625,228.4,4.832,0.976,12.83,103.6923,8.73,9.78,21.33,0,110.1,13.24,9.51,190.4
"2016-02-10 01:47:00",1360945,8.45,235.3,7.479,1.436,14.88,103.6932,8.73,9.86,21.4,0,110.1,13.23,9.51,197.3
"2016-02-10 01:47:30",1360946,9.03,237.5,6.645,1.275,15.68,103.6937,8.73,9.92,21.48,0,110.1,13.24,9.51,199.5
"2016-02-10 01:48:00",1360947,8.76,235.9,7.338,1.389,15.52,103.6929,8.73,9.92,21.52,0,110.1,13.23,9.51,197.9
"2016-02-10 01:48:30",1360948,8.84,236.3,7.216,1.41,14.89,103.694,8.73,9.9,21.33,0,110.1,13.23,9.51,198.3
"2016-02-10 01:49:00",1360949,7.568,229.8,3.606,0.888,12.14,103.6966,8.74,9.7,21.13,0,110.1,13.24,9.52,191.8